Temp
-14 -13 -13 -13 -13 -13 -13 -13 -12 -12 -12 -13 -13 -12 -12 -13 -13 -13 -13 -13 -12 -14 -13 -13 -13 -13 -12 -12 -13 -13 -12 -12 -12 -12 -12 -13 -12 -12 -13 -13 -12 -12 -12
-14 -14 -13 -13 -13 -13 -12 -12 -12 -12 -12 -12 -13 -13 -12 -12 -13 -13 -13 -13 -13 -13 -14 -12 -13 -13 -13 -13 -13 -13 -13 -13 -12 -12 -12 -12 -12 -13 -13 -13 -13 -13 -13
-14 -14 -14 -14 -14 -14 -13 -13 -13 -12 -13 -13 -13 -13 -13 -12 -12 -13 -13 -13 -13 -13 -13 -13 -12 -13 -13 -13 -13 -13 -13 -13 -13 -12 -12 -13 -13 -13 -13 -13 -13 -13 -13
-16 -16 -15 -16 -16 -16 -16 -16 -16 -16 -15 -15 -15 -15 -14 -13 -12 -13 -13 -13 -13 -12 -11 -13 -13 -13 -13 -13 -13 -13 -13 -13 -13 -13 -13 -13 -13 -13 -13 -13 -13 -13 -13
-18 -19 -18 -18 -17 -18 -17 -17 -17 -17 -16 -17 -16 -16 -16 -16 -14 -12 -13 -12 -13 -13 -13 -12 -13 -13 -13 -13 -13 -13 -13 -13 -13 -13 -13 -13 -13 -13 -13 -13 -13 -13 -13
-19 -18 -18 -17 -18 -18 -17 -17 -17 -16 -16 -16 -16 -16 -16 -16 -16 -13 -13 -13 -13 -13 -13 -12 -12 -12 -13 -13 -13 -13 -13 -13 -14 -13 -14 -14 -13 -13 -13 -13 -12 -12 -12
-19 -19 -19 -18 -18 -18 -17 -17 -16 -16 -16 -16 -16 -16 -16 -16 -17 -16 -14 -14 -13 -13 -12 -11 -13 -13 -13 -14 -14 -13 -13 -14 -14 -13 -14 -14 -13 -14 -13 -13 -12 -12 -13
-19 -19 -19 -18 -18 -17 -17 -17 -16 -16 -15 -15 -16 -18 -17 -17 -17 -17 -16 -15 -14 -14 -12 -12 -12 -14 -13 -14 -14 -14 -14 -14 -14 -13 -13 -13 -13 -14 -13 -13 -13 -12 -13
-19 -19 -19 -18 -17 -16 -16 -15 -15 -16 -15 -15 -17 -18 -18 -19 -20 -19 -17 -16 -14 -15 -12 -13 -12 -14 -14 -14 -14 -14 -14 -14 -14 -14 -14 -14 -13 -14 -13 -13 -13 -12 -12
-20 -19 -19 -19 -18 -17 -16 -16 -16 -15 -16 -16 -18 -19 -19 -20 -21 -20 -17 -17 -14 -15 -13 -10 -12 -13 -15 -14 -14 -15 -15 -14 -14 -14 -14 -14 -14 -14 -13 -13 -13 -13 -12
-19 -19 -19 -19 -18 -17 -17 -17 -16 -16 -16 -18 -18 -19 -20 -20 -20 -20 -17 -17 -16 -15 -13 -12 -10 -12 -14 -14 -14 -15 -15 -14 -14 -14 -13 -14 -14 -14 -14 -13 -13 -13 -13
-20 -19 -19 -19 -18 -18 -18 -17 -17 -17 -18 -18 -19 -20 -20 -20 -20 -19 -17 -17 -16 -16 -15 -14 -11 -12 -14 -12 -14 -14 -13 -14 -13 -14 -14 -14 -14 -14 -14 -13 -13 -13 -13
-20 -20 -19 -19 -19 -19 -19 -18 -18 -18 -18 -19 -19 -19 -20 -20 -20 -18 -18 -17 -16 -15 -14 -13 -12 -13 -12 -14 -14 -14 -14 -13 -13 -13 -14 -14 -14 -14 -14 -13 -13 -13 -13
-21 -21 -20 -20 -19 -19 -20 -19 -19 -19 -19 -19 -18 -19 -19 -19 -19 -19 -17 -17 -15 -16 -15 -14 -13 -11 -13 -14 -14 -14 -14 -14 -14 -14 -14 -14 -15 -14 -13 -14 -13 -13 -13
-21 -21 -21 -21 -21 -20 -20 -20 -19 -19 -19 -19 -18 -18 -18 -17 -17 -17 -17 -16 -15 -15 -15 -15 -16 -11 -13 -13 -13 -13 -15 -14 -14 -14 -14 -15 -15 -14 -14 -13 -13 -13 -13
-21 -21 -21 -21 -21 -21 -21 -20 -20 -19 -19 -18 -18 -18 -18 -18 -17 -17 -17 -16 -15 -15 -16 -16 -13 -14 -11 -13 -13 -13 -14 -15 -14 -15 -16 -15 -14 -14 -14 -14 -13 -13 -13
-22 -21 -22 -21 -21 -21 -21 -21 -21 -20 -20 -19 -18 -18 -17 -17 -17 -18 -17 -15 -17 -16 -15 -15 -14 -13 -13 -13 -13 -13 -13 -15 -16 -16 -15 -15 -14 -14 -14 -14 -13 -13 -13
-22 -22 -22 -22 -21 -21 -21 -21 -21 -21 -21 -21 -20 -19 -18 -17 -17 -17 -17 -16 -17 -17 -16 -15 -15 -14 -14 -14 -14 -15 -16 -16 -16 -16 -15 -15 -15 -14 -14 -14 -14 -13 -13
-22 -22 -22 -21 -21 -21 -21 -21 -21 -21 -21 -21 -21 -21 -19 -18 -17 -17 -16 -17 -16 -16 -16 -16 -16 -16 -15 -15 -15 -15 -15 -16 -16 -15 -15 -15 -15 -15 -15 -14 -14 -14 -14
-23 -23 -22 -22 -21 -21 -21 -21 -21 -21 -21 -21 -20 -20 -20 -21 -20 -18 -17 -17 -17 -17 -17 -17 -17 -16 -16 -16 -16 -16 -16 -16 -16 -16 -15 -16 -16 -15 -15 -15 -15 -14 -14
-24 -24 -24 -23 -23 -22 -21 -21 -21 -21 -21 -21 -21 -21 -20 -19 -20 -20 -20 -19 -19 -18 -18 -19 -18 -17 -17 -17 -17 -16 -16 -16 -17 -17 -17 -16 -16 -15 -15 -15 -15 -15 -15
-25 -25 -24 -24 -24 -23 -23 -22 -21 -21 -21 -21 -20 -20 -20 -20 -21 -20 -20 -20 -20 -20 -21 -21 -21 -20 -20 -20 -19 -20 -19 -19 -19 -18 -17 -17 -16 -16 -16 -16 -15 -15 -15
-25 -25 -25 -25 -24 -24 -24 -23 -23 -22 -21 -21 -21 -20 -20 -20 -20 -20 -20 -20 -21 -21 -21 -21 -21 -20 -20 -20 -20 -20 -20 -20 -19 -19 -18 -17 -17 -17 -16 -16 -16 -15 -15
-26 -26 -26 -26 -25 -25 -24 -24 -23 -23 -23 -22 -21 -21 -21 -20 -20 -20 -20 -20 -20 -20 -20 -20 -20 -20 -20 -20 -20 -20 -20 -19 -18 -18 -18 -17 -17 -17 -17 -16 -16 -16 -16
-26 -26 -26 -26 -26 -25 -25 -24 -24 -23 -23 -23 -23 -22 -22 -22 -21 -21 -21 -20 -20 -20 -20 -20 -20 -19 -19 -19 -19 -19 -19 -19 -18 -18 -18 -18 -17 -17 -17 -17 -17 -17 -16
-27 -27 -26 -26 -26 -26 -25 -25 -24 -24 -23 -23 -23 -23 -23 -23 -22 -22 -22 -22 -21 -21 -21 -20 -20 -20 -19 -19 -19 -19 -19 -18 -18 -18 -18 -18 -18 -18 -18 -17 -17 -16 -16
Height
5738 5734 5732 5730 5727 5724 5728 5728 5730 5728 5729 5729 5731 5731 5735 5740 5743 5746 5747 5755 5754 5758 5764 5771 5776 5780 5785 5787 5789 5790 5792 5793 5793 5795 5797 5797 5797 5797 5797 5796 5797 5796 5798
5724 5720 5717 5714 5711 5708 5705 5705 5708 5709 5705 5708 5711 5715 5718 5723 5727 5731 5734 5739 5745 5743 5749 5759 5765 5769 5773 5777 5779 5783 5785 5786 5787 5789 5789 5791 5791 5790 5790 5791 5791 5791 5789
5712 5707 5702 5697 5692 5689 5686 5685 5684 5684 5682 5683 5689 5692 5699 5705 5710 5716 5721 5726 5733 5733 5729 5741 5751 5756 5762 5767 5770 5773 5776 5780 5779 5783 5784 5784 5786 5783 5784 5784 5783 5783 5784
5698 5692 5686 5681 5676 5671 5667 5663 5662 5662 5662 5661 5665 5670 5674 5683 5692 5698 5704 5709 5718 5723 5719 5725 5737 5744 5751 5755 5760 5763 5768 5771 5772 5774 5778 5778 5779 5778 5778 5776 5775 5773 5775
5687 5682 5675 5670 5663 5656 5652 5648 5647 5646 5647 5646 5646 5648 5654 5658 5667 5674 5682 5692 5702 5707 5710 5710 5723 5731 5739 5743 5747 5753 5758 5761 5762 5765 5768 5768 5769 5769 5769 5770 5768 5765 5764
5679 5673 5665 5658 5651 5644 5639 5636 5635 5633 5630 5629 5628 5630 5634 5636 5643 5651 5659 5673 5682 5690 5696 5697 5707 5715 5724 5729 5733 5741 5747 5750 5751 5754 5756 5757 5758 5761 5760 5762 5763 5759 5753
5670 5664 5656 5649 5642 5636 5629 5624 5620 5616 5616 5613 5610 5610 5612 5616 5620 5628 5635 5650 5661 5671 5679 5670 5679 5699 5709 5716 5722 5728 5734 5738 5740 5743 5747 5748 5750 5751 5751 5752 5752 5750 5748
5661 5654 5646 5638 5632 5627 5620 5615 5611 5605 5600 5595 5590 5589 5588 5589 5592 5603 5611 5626 5636 5645 5655 5647 5648 5676 5696 5703 5709 5715 5721 5725 5729 5736 5740 5740 5742 5743 5744 5743 5742 5742 5741
5654 5648 5638 5627 5621 5616 5609 5603 5598 5591 5584 5579 5574 5569 5564 5562 5564 5570 5582 5597 5608 5625 5638 5631 5621 5658 5676 5688 5698 5704 5709 5713 5718 5724 5727 5732 5734 5734 5735 5735 5735 5733 5733
5648 5641 5632 5621 5612 5605 5598 5591 5586 5577 5575 5573 5564 5555 5547 5544 5538 5543 5559 5576 5589 5608 5628 5627 5641 5646 5660 5674 5683 5690 5694 5700 5707 5714 5717 5720 5723 5725 5725 5726 5727 5726 5726
5641 5635 5626 5616 5604 5597 5590 5584 5577 5571 5568 5561 5553 5542 5533 5529 5522 5530 5548 5566 5579 5596 5612 5618 5602 5622 5643 5658 5667 5673 5678 5687 5693 5700 5704 5708 5711 5712 5715 5713 5716 5718 5717
5634 5628 5621 5612 5600 5593 5586 5582 5575 5568 5561 5552 5543 5534 5525 5522 5520 5529 5541 5557 5568 5582 5601 5610 5585 5596 5621 5642 5650 5656 5665 5672 5676 5683 5690 5696 5700 5703 5703 5702 5705 5706 5707
5628 5621 5615 5608 5599 5590 5583 5578 5573 5565 5558 5547 5539 5531 5530 5522 5525 5533 5543 5556 5564 5575 5590 5600 5584 5605 5623 5633 5639 5648 5659 5649 5662 5658 5674 5682 5687 5690 5692 5692 5692 5695 5697
5622 5617 5610 5603 5597 5589 5582 5575 5570 5565 5558 5549 5543 5536 5531 5530 5534 5538 5548 5557 5563 5568 5587 5591 5603 5602 5614 5622 5627 5633 5644 5648 5652 5657 5661 5668 5672 5676 5678 5680 5682 5682 5683
5617 5612 5606 5600 5593 5585 5579 5572 5570 5565 5559 5553 5547 5542 5538 5536 5536 5545 5548 5554 5561 5569 5582 5583 5585 5584 5605 5610 5617 5623 5631 5638 5643 5643 5647 5654 5659 5662 5664 5668 5670 5670 5671
5613 5608 5603 5597 5591 5585 5578 5572 5566 5562 5558 5553 5550 5545 5543 5539 5541 5548 5550 5556 5566 5575 5577 5581 5586 5592 5587 5595 5604 5610 5619 5625 5625 5628 5635 5643 5645 5648 5652 5655 5657 5658 5658
5608 5604 5599 5594 5589 5583 5579 5573 5567 5561 5555 5550 5547 5544 5540 5541 5541 5544 5551 5558 5565 5572 5570 5570 5571 5577 5583 5587 5592 5597 5601 5606 5611 5619 5623 5628 5633 5635 5637 5638 5644 5646 5647
5602 5599 5595 5590 5585 5580 5576 5572 5567 5562 5557 5550 5546 5543 5542 5542 5543 5544 5550 5557 5557 5561 5566 5566 5567 5571 5572 5578 5582 5585 5590 5595 5601 5606 5610 5616 5619 5620 5623 5627 5631 5633 5634
5595 5593 5589 5585 5581 5577 5573 5570 5566 5561 5558 5555 5548 5547 5544 5543 5543 5546 5548 5548 5547 5551 5554 5556 5561 5563 5567 5569 5572 5577 5581 5583 5588 5593 5599 5603 5605 5607 5610 5614 5617 5619 5619
5585 5583 5582 5579 5576 5572 5568 5564 5562 5560 5556 5553 5551 5547 5545 5542 5543 5542 5544 5547 5547 5548 5546 5547 5549 5554 5557 5560 5563 5565 5570 5574 5578 5583 5585 5590 5593 5594 5597 5599 5602 5605 5605
5577 5575 5573 5571 5568 5566 5563 5560 5557 5555 5554 5551 5547 5545 5542 5540 5540 5541 5542 5541 5541 5540 5539 5542 5543 5546 5550 5552 5554 5556 5559 5560 5563 5567 5572 5578 5580 5580 5583 5586 5589 5591 5590
5570 5568 5565 5563 5561 5558 5555 5553 5551 5549 5546 5545 5545 5544 5543 5543 5540 5536 5535 5534 5533 5533 5535 5537 5537 5538 5540 5541 5544 5546 5550 5551 5554 5558 5562 5565 5565 5566 5569 5573 5574 5575 5575
5563 5560 5558 5555 5553 5551 5549 5546 5543 5540 5538 5536 5536 5535 5534 5533 5533 5532 5531 5530 5530 5532 5533 5532 5530 5532 5534 5535 5538 5541 5544 5545 5547 5549 5550 5550 5551 5555 5556 5557 5558 5557 5558
5556 5553 5550 5547 5545 5543 5541 5539 5536 5534 5532 5529 5526 5525 5525 5525 5525 5525 5524 5523 5524 5524 5522 5522 5523 5524 5525 5527 5529 5532 5533 5535 5535 5534 5535 5536 5538 5539 5540 5539 5538 5539 5542
5550 5547 5544 5541 5538 5535 5533 5530 5528 5525 5523 5521 5518 5517 5515 5512 5512 5512 5512 5512 5512 5511 5512 5512 5512 5513 5514 5514 5515 5516 5516 5516 5516 5517 5518 5518 5519 5520 5520 5521 5521 5523 5524
5545 5543 5540 5537 5533 5529 5525 5521 5517 5514 5512 5510 5508 5507 5504 5503 5501 5500 5499 5498 5497 5498 5498 5498 5498 5498 5499 5499 5499 5499 5498 5499 5500 5500 5499 5499 5500 5500 5501 5501 5502 5504 5505
Wind_Speed
51 55 57 58 58 60 58 58 58 59 59 60 61 64 65 58 59 58 58 57 56 57 53 45 37 35 33 32 34 35 32 31 29 27 25 25 24 22 23 24 23 25 24
53 55 58 60 62 63 65 63 61 61 66 65 64 64 66 65 62 62 60 58 61 57 57 49 41 39 35 36 36 35 33 33 32 28 27 25 24 24 26 26 28 27 29
53 55 59 63 64 66 69 68 69 68 69 66 66 66 67 67 67 65 63 62 58 61 59 54 48 44 38 37 37 37 36 33 34 29 28 26 25 28 27 28 31 34 33
50 57 61 62 62 66 66 64 60 53 56 58 55 58 64 70 69 70 69 66 61 61 63 56 53 50 40 39 40 39 37 36 34 32 28 28 26 28 27 30 34 28 31
49 48 53 55 56 53 52 45 46 43 45 51 54 52 52 55 71 75 75 74 66 64 65 60 55 53 43 42 43 39 37 36 36 33 29 28 27 29 27 27 26 30 33
42 46 52 50 49 46 43 46 44 50 48 49 55 57 53 48 56 77 80 77 74 66 64 71 61 55 48 46 46 39 39 38 38 35 29 27 26 24 25 23 24 28 29
40 45 53 45 35 38 44 41 40 43 49 60 63 59 65 67 61 61 84 81 82 71 68 82 75 65 51 49 48 42 39 42 41 39 30 31 26 29 28 26 24 25 25
36 42 52 40 34 38 35 36 42 45 54 53 52 51 56 67 71 69 77 83 86 82 75 70 87 71 53 54 50 45 43 46 45 38 35 31 31 30 28 28 26 26 28
36 41 47 36 31 38 41 38 41 45 32 39 51 51 55 60 59 63 78 79 92 84 73 67 78 65 60 57 51 50 48 49 48 42 34 36 36 30 30 29 28 28 24
36 38 45 40 31 34 36 39 43 36 30 43 42 43 41 43 52 69 74 78 94 87 82 49 61 56 67 58 58 57 56 54 49 45 42 32 34 34 31 31 29 28 26
34 35 36 42 30 32 33 38 42 33 32 36 41 29 34 27 34 66 65 66 81 88 82 84 53 65 66 60 64 63 64 56 58 51 43 40 37 36 33 30 31 30 28
30 28 29 33 34 30 31 29 31 30 34 37 28 23 23 29 33 62 56 49 76 89 88 82 38 73 69 63 71 69 61 61 55 54 46 41 40 39 32 30 32 29 28
29 30 30 30 31 32 29 25 30 33 33 24 23 22 16 16 24 54 52 41 49 83 60 63 54 76 67 72 71 65 59 56 51 41 37 42 39 41 42 37 36 32 32
29 32 32 31 28 30 27 23 24 29 30 12 15 17 15 10 20 23 39 37 45 79 72 42 61 57 76 72 67 63 61 50 61 52 49 52 43 45 45 44 42 40 41
28 29 29 30 28 28 30 27 21 20 23 17 11 7 13 13 5 28 18 37 49 66 70 67 60 57 71 80 65 57 58 67 64 66 57 42 44 44 37 39 40 39 38
27 28 27 26 25 26 27 28 28 23 20 18 13 7 18 15 10 10 27 23 33 39 66 57 47 55 62 82 66 66 64 77 50 33 30 41 43 46 45 40 40 41 42
27 28 28 25 25 24 25 24 25 26 23 22 18 7 5 7 6 15 18 40 36 34 36 40 60 68 44 52 62 68 70 38 28 35 39 43 40 40 41 42 44 44 47
27 29 30 30 29 27 26 26 26 22 24 25 24 20 13 10 11 16 20 36 41 27 27 26 31 40 45 42 45 36 28 31 37 43 43 41 42 42 41 42 44 43 43
33 33 33 33 33 30 30 28 27 26 23 20 23 20 16 18 18 24 21 32 36 41 32 31 27 29 32 36 32 33 41 42 43 43 42 43 44 44 43 44 46 48 49
30 31 33 34 34 35 35 36 31 29 27 25 18 18 18 18 15 15 22 24 29 27 27 31 33 32 39 37 37 35 37 43 44 44 45 45 45 46 46 43 42 41 41
35 35 33 31 33 34 36 38 38 36 31 28 26 24 19 20 18 17 20 22 22 21 22 18 21 31 38 39 36 36 43 47 40 38 39 42 45 45 44 43 42 42 41
38 37 35 34 33 32 33 36 37 39 38 36 31 29 26 23 22 22 21 18 20 21 19 19 18 22 23 23 27 28 31 35 36 37 40 44 45 46 47 47 46 45 44
36 36 35 34 34 33 32 32 34 36 39 41 39 38 35 33 30 28 28 28 26 26 25 25 23 24 25 29 28 32 36 39 41 43 44 45 48 51 52 53 52 49 47
32 32 32 32 32 33 33 33 34 34 34 36 40 43 43 42 42 40 39 38 36 36 35 34 35 35 35 37 38 40 42 44 45 46 47 50 53 54 55 54 53 51 53
26 26 26 27 29 31 34 35 36 37 37 37 36 35 35 38 42 45 47 49 48 46 46 45 45 45 45 45 46 48 49 49 50 52 53 54 56 58 58 58 57 58 58
20 21 23 24 24 25 27 31 35 39 42 44 43 44 45 44 44 44 44 44 47 50 54 56 57 56 56 56 56 56 56 58 59 58 58 59 60 60 61 64 65 65 64
Wind_Direction
289 288 287 286 283 280 274 271 271 268 260 255 251 253 253 252 256 254 251 242 240 244 252 254 248 248 250 253 252 254 256 259 257 257 263 268 275 279 282 281 281 283 277
289 289 287 284 282 281 281 280 272 265 263 260 256 250 249 249 248 251 250 245 241 238 242 250 247 245 243 248 253 256 257 258 260 262 263 271 275 281 280 284 283 279 281
289 287 285 283 281 279 275 272 270 268 267 264 259 256 248 245 247 246 248 247 246 240 230 241 244 242 240 244 249 254 256 257 261 265 268 269 275 275 281 286 283 279 276
292 291 289 290 288 288 289 285 279 276 272 268 264 260 254 245 241 241 243 243 244 246 239 233 240 242 238 239 245 249 255 257 261 264 270 271 275 278 280 280 292 283 282
298 296 294 297 296 290 287 285 285 278 272 276 277 270 263 249 238 235 236 240 235 240 238 233 240 240 235 239 242 245 253 259 260 264 269 272 272 276 286 300 278 284 286
296 299 307 301 296 295 295 286 279 277 278 276 278 271 260 255 249 233 230 233 234 234 239 231 233 231 229 234 242 242 248 254 257 261 264 271 267 272 288 283 290 286 285
299 305 312 303 292 300 294 288 287 287 282 281 280 272 257 261 263 246 228 225 231 228 234 229 223 230 227 233 239 243 246 252 254 255 258 259 264 269 278 288 293 299 293
310 319 313 304 292 306 297 282 290 284 286 278 273 271 274 271 259 251 233 222 225 223 229 234 224 223 226 233 238 240 244 250 254 257 262 256 260 267 273 280 288 295 293
310 316 326 309 301 303 311 302 296 301 286 300 297 282 282 270 260 232 226 222 219 219 227 237 216 213 225 230 237 241 242 248 252 252 256 251 258 262 272 277 285 288 291
307 307 324 321 306 311 309 311 312 309 304 296 301 286 275 274 259 222 214 220 216 215 217 221 229 220 221 227 234 238 241 243 247 251 252 247 255 264 268 271 278 282 281
305 311 325 330 319 322 324 320 323 320 311 284 300 293 270 283 258 213 211 218 219 215 215 223 230 224 217 226 232 236 239 242 247 244 244 247 250 257 265 274 279 282 278
301 313 321 333 339 327 331 326 342 317 321 309 317 288 310 291 231 206 211 213 218 215 215 225 228 204 212 224 230 234 238 240 250 252 235 244 251 256 262 271 276 272 262
304 311 315 331 342 339 330 336 343 337 330 321 332 329 319 275 229 207 214 217 223 214 199 208 226 221 221 226 230 236 240 235 245 236 247 246 248 253 257 260 265 269 264
308 307 314 323 337 350 351 334 344 345 344 337 324 333 334 285 232 235 223 219 218 218 217 216 218 223 223 225 228 235 242 256 246 238 245 248 242 250 260 265 267 263 266
307 311 317 319 328 345 356 355 325 316 337 340 332 302 340 317 218 227 214 225 225 224 216 239 239 214 226 229 232 237 242 247 241 241 240 242 247 252 256 262 263 261 265
303 308 312 317 323 334 344 356 351 336 340 345 335 331 307 309 168 223 235 209 215 223 229 239 208 231 206 226 227 236 238 237 230 233 249 247 253 255 255 254 259 259 260
302 305 308 313 320 327 335 344 356 353 346 342 342 341 256 260 306 284 214 198 224 253 246 241 234 224 234 236 230 227 234 229 233 239 245 255 254 251 251 252 256 259 259
304 303 305 310 314 320 325 333 339 349 358 354 342 337 325 312 285 280 275 227 255 260 257 234 224 229 239 240 232 231 245 243 251 242 259 249 255 253 253 253 253 256 258
294 293 299 305 305 307 311 318 325 331 335 348 350 346 317 281 279 266 270 271 261 258 261 258 249 250 242 231 224 244 237 246 247 249 250 255 255 255 252 251 253 256 257
302 300 297 296 298 300 302 305 309 314 318 321 327 333 337 326 297 270 254 254 240 247 257 255 257 242 251 257 248 252 256 248 247 251 250 248 248 249 252 253 254 257 259
303 304 303 301 298 293 292 294 296 297 299 302 306 309 311 319 316 302 278 258 250 253 254 256 248 247 239 237 243 251 255 242 237 240 242 246 248 249 249 250 253 254 257
300 302 303 305 305 303 297 293 290 289 290 289 288 287 287 284 284 292 296 297 289 268 265 270 272 261 248 257 255 249 247 237 238 242 244 248 252 252 254 254 255 254 254
298 301 302 301 301 301 300 298 295 293 290 286 284 282 280 280 278 276 276 277 276 276 273 260 257 256 259 253 241 250 250 248 246 244 246 250 252 254 255 255 255 257 256
300 302 304 305 303 301 300 298 295 292 289 286 284 282 279 276 275 273 273 272 270 268 266 267 268 267 264 257 256 256 253 252 252 252 251 251 252 252 254 256 257 258 259
307 310 311 310 308 304 300 298 296 295 292 289 285 281 280 282 280 278 277 274 269 270 268 266 263 263 262 259 256 257 260 260 260 259 256 256 257 258 258 258 259 262 262
318 317 317 320 323 326 321 311 300 292 288 286 285 284 283 281 280 280 278 277 276 273 271 269 268 265 263 263 264 263 262 262 263 264 263 262 261 262 263 263 262 261 260